TimeEDT,TemperatureF,Dew PointF,Humidity,Sea Level PressureIn,VisibilityMPH,Wind Direction,Wind SpeedMPH,Gust SpeedMPH,PrecipitationIn,Events,Conditions,WindDirDegrees,DateUTC
12:54 AM,73.9,70.0,87,29.74,7.0,SW,8.1,-,N/A,,Overcast,230,2013-09-03 04:54:00
1:54 AM,72.0,70.0,93,29.71,6.0,South,5.8,-,N/A,,Overcast,170,2013-09-03 05:54:00
2:09 AM,71.6,69.8,94,29.71,6.0,SSW,4.6,-,N/A,,Scattered Clouds,210,2013-09-03 06:09:00
2:54 AM,73.0,70.0,90,29.71,7.0,WSW,6.9,-,N/A,,Mostly Cloudy,240,2013-09-03 06:54:00
3:41 AM,69.8,68.0,94,29.69,5.0,Calm,Calm,-,N/A,,Scattered Clouds,0,2013-09-03 07:41:00
3:54 AM,69.1,68.0,96,29.70,5.0,Calm,Calm,-,N/A,,Mostly Cloudy,0,2013-09-03 07:54:00
4:54 AM,73.0,69.1,87,29.70,6.0,West,8.1,-,N/A,,Overcast,260,2013-09-03 08:54:00
5:54 AM,72.0,68.0,87,29.73,8.0,WSW,8.1,-,N/A,,Mostly Cloudy,240,2013-09-03 09:54:00
6:27 AM,71.6,68.0,88,29.74,10.0,SW,10.4,-,N/A,,Scattered Clouds,220,2013-09-03 10:27:00
6:54 AM,72.0,68.0,87,29.75,9.0,SW,6.9,-,N/A,,Scattered Clouds,230,2013-09-03 10:54:00
7:54 AM,73.9,66.9,79,29.76,10.0,WSW,9.2,-,N/A,,Scattered Clouds,250,2013-09-03 11:54:00
8:54 AM,77.0,66.0,69,29.77,10.0,West,6.9,-,N/A,,Partly Cloudy,270,2013-09-03 12:54:00
9:54 AM,80.1,66.0,62,29.77,10.0,Calm,Calm,-,N/A,,Scattered Clouds,0,2013-09-03 13:54:00
10:54 AM,78.1,66.0,66,29.76,10.0,SE,6.9,-,N/A,,Mostly Cloudy,140,2013-09-03 14:54:00
11:54 AM,78.1,66.9,68,29.74,10.0,Variable,6.9,-,N/A,,Mostly Cloudy,0,2013-09-03 15:54:00
12:54 PM,79.0,64.9,62,29.75,10.0,SW,9.2,-,N/A,,Overcast,220,2013-09-03 16:54:00
1:54 PM,79.0,66.0,64,29.74,10.0,SW,8.1,-,N/A,,Overcast,230,2013-09-03 17:54:00
2:54 PM,78.1,66.0,66,29.73,10.0,SW,9.2,-,N/A,,Overcast,230,2013-09-03 18:54:00
3:54 PM,77.0,68.0,74,29.72,10.0,SSW,8.1,-,N/A,,Overcast,200,2013-09-03 19:54:00
4:54 PM,77.0,69.1,76,29.72,10.0,SSW,11.5,16.1,N/A,,Mostly Cloudy,200,2013-09-03 20:54:00
5:54 PM,75.9,64.9,69,29.72,10.0,SSW,12.7,-,N/A,,Mostly Cloudy,210,2013-09-03 21:54:00
6:54 PM,75.0,66.0,73,29.73,10.0,SW,15.0,-,N/A,,Mostly Cloudy,230,2013-09-03 22:54:00
7:54 PM,75.0,61.0,62,29.75,10.0,West,10.4,-,N/A,,Overcast,280,2013-09-03 23:54:00
8:54 PM,73.9,61.0,64,29.78,10.0,West,6.9,-,N/A,,Overcast,280,2013-09-04 00:54:00
9:54 PM,72.0,59.0,64,29.80,10.0,West,10.4,-,N/A,,Mostly Cloudy,280,2013-09-04 01:54:00
10:54 PM,70.0,55.9,61,29.81,10.0,West,9.2,-,N/A,,Mostly Cloudy,280,2013-09-04 02:54:00
11:54 PM,68.0,55.9,65,29.81,10.0,West,10.4,-,N/A,,Scattered Clouds,280,2013-09-04 03:54:00